Regional Weather Roundup
Issued by NWS

Home | Current Version | Previous Version | Graphics & Text | Print | Product List | Glossary On
Versions: 1 2 3 4 5 6 7 8 9 10 11 12 13 14 15 16 17 18 19 20 21 22 23 24 25 26 27 28 29 30 31 32 33 34 35 36 37 38 39 40 41 42 43 44 45 46 47 48 49 50
000
ASUS43 KLOT 281200
RWRIL

ILLINOIS REGIONAL WEATHER ROUNDUP
NATIONAL WEATHER SERVICE CHICAGO/ROMEOVILLE IL
700 AM CDT FRI AUG 28 2015

NOTE: "FAIR" INDICATES FEW OR NO CLOUDS BELOW 12,000 FEET WITH NO
SIGNIFICANT WEATHER AND/OR OBSTRUCTIONS TO VISIBILITY.

* THESE STATIONS ARE NOT UNDER NWS QUALITY CONTROL. THEY ALSO MAY NOT
  REPORT WEATHER SUCH AS PRECIPITATION OR FOG.

ILZ001-002-007-009-015-016-024-281300-
NORTHWEST ILLINOIS

CITY           SKY/WX    TMP DP  RH WIND       PRES   REMARKS
MOLINE         CLOUDY    59  56  89 CALM      30.12R
6HR MIN TEMP:  59; 6HR MAX TEMP:  64;

STERLING*      CLOUDY    61  57  88 CALM      30.11R
$$

ILZ003-004-008-010-011-017-018-281300-
NORTH CENTRAL ILLINOIS

CITY           SKY/WX    TMP DP  RH WIND       PRES   REMARKS
ROCKFORD       LGT RAIN  61  56  83 CALM      30.14R
6HR MIN TEMP:  58; 6HR MAX TEMP:  61; 6HR PCP: TRACE;

FREEPORT*      CLOUDY    57  56  97 CALM      30.15R FOG
$$

ILZ005-006-012>014-019>023-281300-
NORTHEAST ILLINOIS

CITY           SKY/WX    TMP DP  RH WIND       PRES   REMARKS
CHICAGO-OHARE  MOCLDY    61  56  83 CALM      30.13R
6HR MIN TEMP:  56; 6HR MAX TEMP:  61;

CHICAGO-MIDWAY MOCLDY    63  56  78 CALM      30.13R
6HR MIN TEMP:  62; 6HR MAX TEMP:  65;

AURORA         CLOUDY    59  57  93 CALM      30.13R FOG
6HR MIN TEMP:  53; 6HR MAX TEMP:  59;

LANSING*       CLEAR     57  56  97 CALM      30.14R
WAUKEGAN       PTCLDY    56  56 100 CALM      30.13R FOG
6HR MIN TEMP:  53; 6HR MAX TEMP:  58;

DUPAGE AIRPORT CLOUDY    60  55  83 CALM      30.12S
6HR MIN TEMP:  55; 6HR MAX TEMP:  60;

WHEELING       PTCLDY    58  54  86 CALM      30.14R
6HR MIN TEMP:  54; 6HR MAX TEMP:  58;

NORTHERLY ISL    N/A     61  56  83 S2          N/A
$$

LMZ740>746-281300-
SOUTHERN LAKE MICHIGAN

STATION/POSITION SKY/WX   TEMP    WIND        PRES    VSBY  WAVE
                          AIR SEA DIR/SP/G                  HT/PER
                          (F)     (DEG/KT/KT) (MB)    (MI)  (FT/S)
SOUTHERN BUOY              66 67  170/ 10/ 14 1020.4          2/ 4
WILMETTE HARBOR            58 56  320/  4/  6   N/A           2/ 4
HARRISON CRIB              63     180/ 11/ 12   N/A
BURNHAM HARBOR             62     170/  1/  4   N/A
CALUMET HARBOR             61     150/  3/  6   N/A
BURNS HARBOR               62     170/ 11/ 16 1020.3S
MICHIGAN CITY              60     120/ 10/ 12   N/A
MICHIGAN CITY 6N           63 71  170/ 14/ 16   N/A           1/ 2
ST. JOSEPH                 62 71  190/ 14/ 16   N/A           1/ 2
$$

ILZ025>027-034>036-040-047-049-050-058-095>099-281300-
WEST-CENTRAL ILLINOIS

CITY           SKY/WX    TMP DP  RH WIND       PRES   REMARKS
QUINCY         MOCLDY    62  57  83 S9        30.07F
MACOMB*        CLOUDY    56  56  98 CALM      30.12R
$$

ILZ028>032-037-038-041>044-048-051>054-059>061-281300-
CENTRAL ILLINOIS

CITY           SKY/WX    TMP DP  RH WIND       PRES   REMARKS
DECATUR        MOCLDY    60  56  86 CALM      30.13R
PEORIA         CLOUDY    63  58  83 S5        30.12R
6HR MIN TEMP:  62; 6HR MAX TEMP:  66;

SPRINGFIELD    MOCLDY    59  57  93 CALM      30.12F
6HR MIN TEMP:  57; 6HR MAX TEMP:  61;

TAYLORVILLE    NOT AVBL
$$

ILZ033-039-045-046-055>057-062-063-281300-
EAST-CENTRAL ILLINOIS

CITY           SKY/WX    TMP DP  RH WIND       PRES   REMARKS
CHAMPAIGN      PTCLDY    60  58  92 S5        30.14R
MATTOON        PTCLDY    60  57  89 S6        30.14R
$$

ILZ079-100>102-281300-
SOUTHWEST ILLINOIS

CITY           SKY/WX    TMP DP  RH WIND       PRES   REMARKS
CAHOKIA*       CLEAR     59  56  89 SE3       30.12R FOG
$$

ILZ064>066-069>071-074>076-080>082-084>086-088>090-092>094-281300-
SOUTH-CENTRAL ILLINOIS

CITY           SKY/WX    TMP DP  RH WIND       PRES   REMARKS
CARBONDALE     PTCLDY    55  54  96 CALM      30.12R FOG
6HR MIN TEMP:  54; 6HR MAX TEMP:  59;

MARION         PTCLDY    55  55 100 SE6       30.13R
MT. VERNON     CLEAR     57  52  82 CALM      30.14R
SALEM*         CLEAR     62  59  90 CALM      30.14R
$$

ILZ067-068-072-073-078-083-087-091-281300-
SOUTHEAST ILLINOIS

CITY           SKY/WX    TMP DP  RH WIND       PRES   REMARKS
LAWRENCEVILLE  CLEAR     58  57  97 E3        30.16R FOG
FLORA*         CLEAR     55  54  96 CALM      30.15R
ROBINSON*        N/A     53  52  97 CALM      30.17R FOG
$$

ABBREVIATIONS USED IN REMARKS
   TC - TEMPERATURE IN CELSIUS
  WCI - WIND CHILL INDEX
   HX - HEAT INDEX
  VSB - VISIBILITY
$$



USA.gov is the U.S. government's official web portal to all federal, state and local government web resources and services.